Location: Arran
(51.9410°N, 101.7372°W)
Time: 12:29:03
(UTC+00:00)

XW-2F - Visible Passes

Search period start: 01 December 2023 00:00
Search period end: 11 December 2023 00:00
Orbit: 400 x 406 km, 97.4° (Epoch: 01 December)

Date Brightness Start Highest point End Pass type
(mag) Time Alt. Az. Time Alt. Az. Time Alt. Az.
01 Dec ? 00:35:40 15° N 00:35:40 15° N 00:36:19 10° N visible
01 Dec ? 13:12:12 10° NE 13:14:12 16° E 13:16:10 10° SE visible
02 Dec ? 01:18:57 10° NNW 01:18:57 10° NNW 01:18:57 10° NNW visible
03 Dec ? 00:29:20 10° N 00:29:20 10° N 00:29:22 10° N visible
03 Dec ? 13:05:34 10° ENE 13:07:06 13° E 13:08:38 10° ESE visible
04 Dec ? 13:46:33 10° NNE 13:49:31 38° E 13:52:27 10° S visible
05 Dec ? 12:58:45 10° ENE 12:59:22 10° E 12:59:58 10° E visible
06 Dec ? 13:38:41 10° NNE 13:41:30 30° E 13:44:17 10° SSE visible
08 Dec ? 13:30:15 10° NE 13:32:51 23° E 13:35:26 10° SSE visible
10 Dec ? 13:21:16 10° NE 13:23:33 18° E 13:25:50 10° SE visible
